Weather History for KGUS - January, 2013

Change the Weather History Date:

Sunday, January 6, 2013

  Actual Average Record
Temperature  
Mean Temperature 30 °F -  
Max Temperature 35 °F 31 °F 59 °F (2008)
Min Temperature 24 °F 20 °F -14 °F (2014)
Degree Days  
Heating Degree Days 36    
Moisture  
Dew Point 27 °F    
Average Humidity 87    
Maximum Humidity 93    
Minimum Humidity 80    
Precipitation  
Precipitation 0.00 in - - ()
Sea Level Pressure  
Sea Level Pressure 30.12 in    
Wind  
Wind Speed 15 mph (West)    
Max Wind Speed 23 mph    
Max Gust Speed 29 mph    
Visibility 10 miles    
Events Rain , Snow    
Averages and records for this station are not official NWS values.
T = Trace of Precipitation, MM = Missing Value Source: NWS Daily Summary

Daily Weather History Graph

Daily Weather History Graph

Search for Another Location

Airport or City:

Trip Planner

Search our weather history database for the weather conditions in past years. The results will help you decide how hot, cold, wet, or windy it might be!

Date:

Astronomy

Jan. 06, 2013 Rise Set
Actual Time 8:08 AM EST 5:32 PM EST
Civil Twilight 7:37 AM EST 6:03 PM EST
Nautical Twilight 7:03 AM EST 6:37 PM EST
Astronomical Twilight 6:30 AM EST 7:10 PM EST
Moon 2:21 AM EST (1/6) 1:00 PM EST (1/6)
Length of Visible Light 10h 25m
Length of Day
9h 24m
Waning Crescent, 33% of the Moon is Illuminated
Jan 6
Waning Crescent
Jan 11
New
Jan 18
First Quarter
Jan 26
Full
Feb 3
Last Quarter

Hourly Weather History & Observations

Time (EST) Temp. Windchill Dew Point Humidity Pressure Visibility Wind Dir Wind Speed Gust Speed Precip Events Conditions
12:55 AM 33.6 °F 23.7 °F 29.8 °F 86% 30.07 in 10.0 mi SW 15.0 mph - N/A   Overcast
1:23 AM 33.8 °F 23.9 °F 30.2 °F 87% 30.06 in 10.0 mi SW 15.0 mph - N/A   Overcast
1:32 AM 33.8 °F 23.5 °F 30.2 °F 87% 30.05 in 10.0 mi SW 16.1 mph - N/A   Overcast
1:55 AM 34.2 °F 25.7 °F 29.7 °F 84% 30.04 in 10.0 mi SW 11.5 mph - N/A   Overcast
2:55 AM 34.2 °F 24.8 °F 29.8 °F 84% 30.04 in 10.0 mi SW 13.8 mph - N/A   Overcast
3:55 AM 34.3 °F 24.2 °F 30.4 °F 85% 30.02 in 10.0 mi SW 16.1 mph - N/A   Overcast
4:55 AM 34.5 °F 24.8 °F 30.9 °F 87% 30.00 in 10.0 mi SW 15.0 mph - N/A   Overcast
5:04 AM 33.8 °F 23.5 °F 30.2 °F 87% 30.00 in 10.0 mi SW 16.1 mph - N/A   Overcast
5:07 AM 33.8 °F 23.9 °F 30.2 °F 87% 30.00 in 10.0 mi SW 15.0 mph - N/A   Overcast
5:12 AM 33.8 °F 23.9 °F 30.2 °F 87% 30.00 in 10.0 mi SW 15.0 mph - N/A   Overcast
5:55 AM 34.5 °F 25.3 °F 31.1 °F 87% 29.99 in 10.0 mi SW 13.8 mph - N/A   Overcast
6:55 AM 34.2 °F 25.7 °F 31.1 °F 89% 29.99 in 10.0 mi SW 11.5 mph - N/A   Overcast
7:37 AM 33.8 °F 23.9 °F 30.2 °F 87% 30.00 in 10.0 mi WSW 15.0 mph - N/A   Overcast
7:55 AM 34.2 °F 24.8 °F 31.1 °F 89% 30.00 in 10.0 mi WSW 13.8 mph - N/A   Overcast
8:38 AM 35.6 °F 26.2 °F 32.0 °F 87% 30.00 in 10.0 mi WSW 15.0 mph - N/A   Overcast
8:55 AM 34.7 °F 25.5 °F 31.3 °F 87% 30.01 in 10.0 mi WSW 13.8 mph - N/A   Overcast
8:56 AM 35.6 °F 26.6 °F 32.0 °F 87% 30.01 in 10.0 mi WSW 13.8 mph - N/A   Overcast
9:14 AM 33.8 °F 24.3 °F 32.0 °F 93% 30.01 in 10.0 mi WSW 13.8 mph - N/A   Overcast
9:21 AM 33.8 °F 24.8 °F 32.0 °F 93% 30.01 in 10.0 mi WSW 12.7 mph - N/A   Overcast
9:33 AM 33.8 °F 21.9 °F 30.2 °F 87% 30.02 in 10.0 mi WNW 21.9 mph 28.8 mph N/A   Light Drizzle
9:36 AM 33.8 °F 22.8 °F 30.2 °F 87% 30.02 in 10.0 mi WNW 18.4 mph 28.8 mph N/A   Light Drizzle
9:39 AM 32.0 °F 20.1 °F 30.2 °F 93% 30.02 in 10.0 mi WNW 19.6 mph - N/A   Overcast
9:40 AM 32.0 °F 20.1 °F 30.2 °F 93% 30.02 in 10.0 mi WNW 19.6 mph - N/A   Light Drizzle
9:48 AM 32.0 °F 19.8 °F 30.2 °F 93% 30.03 in 10.0 mi West 20.7 mph - N/A   Light Freezing Drizzle
9:55 AM 30.9 °F 17.8 °F 28.8 °F 92% 30.03 in 10.0 mi WNW 23.0 mph - 0.00 in Rain , Snow Light Freezing Rain
10:30 AM 28.4 °F 17.0 °F 26.6 °F 93% 30.02 in 10.0 mi West 15.0 mph - N/A   Overcast
10:55 AM 28.9 °F 15.8 °F 24.4 °F 83% 30.06 in 10.0 mi West 20.7 mph 25.3 mph 0.00 in   Overcast
11:55 AM 26.1 °F 12.3 °F 21.6 °F 83% 30.08 in 10.0 mi West 19.6 mph - N/A   Overcast
12:55 PM 24.3 °F 10.0 °F 19.9 °F 84% 30.09 in 10.0 mi West 19.6 mph - N/A   Overcast
1:55 PM 24.1 °F 12.0 °F 19.9 °F 84% 30.11 in 10.0 mi WNW 13.8 mph - 0.00 in Snow Light Snow
2:41 PM 24.8 °F 12.4 °F 19.4 °F 80% 30.12 in 10.0 mi WNW 15.0 mph - N/A   Overcast
2:55 PM 24.8 °F 12.4 °F 20.3 °F 83% 30.14 in 10.0 mi WNW 15.0 mph - 0.00 in   Overcast
3:55 PM 25.7 °F 15.1 °F 21.2 °F 83% 30.18 in 10.0 mi West 11.5 mph - N/A   Mostly Cloudy
4:08 PM 26.6 °F 16.2 °F 21.2 °F 80% 30.19 in 10.0 mi WNW 11.5 mph - N/A   Overcast
4:55 PM 26.2 °F 14.7 °F 22.1 °F 84% 30.21 in 10.0 mi West 13.8 mph - N/A   Overcast
5:02 PM 26.6 °F 15.7 °F 21.2 °F 80% 30.21 in 10.0 mi West 12.7 mph - N/A   Overcast
5:34 PM 26.6 °F 14.7 °F 23.0 °F 86% 30.22 in 10.0 mi West 15.0 mph - N/A   Overcast
5:39 PM 26.6 °F 15.2 °F 23.0 °F 86% 30.23 in 10.0 mi West 13.8 mph - N/A   Overcast
5:55 PM 26.8 °F 14.9 °F 23.4 °F 87% 30.24 in 10.0 mi West 15.0 mph - N/A   Overcast
6:19 PM 26.6 °F 15.2 °F 23.0 °F 86% 30.25 in 10.0 mi West 13.8 mph - N/A   Overcast
6:24 PM 26.6 °F 15.2 °F 23.0 °F 86% 30.26 in 10.0 mi West 13.8 mph - N/A   Overcast
6:30 PM 26.6 °F 15.2 °F 23.0 °F 86% 30.26 in 10.0 mi West 13.8 mph - N/A   Overcast
6:55 PM 27.3 °F 16.1 °F 23.9 °F 87% 30.28 in 10.0 mi West 13.8 mph - N/A   Overcast
6:59 PM 26.6 °F 16.2 °F 24.8 °F 93% 30.28 in 10.0 mi West 11.5 mph - N/A   Overcast
7:21 PM 26.6 °F 16.8 °F 24.8 °F 93% 30.29 in 10.0 mi West 10.4 mph - N/A   Overcast
7:55 PM 28.0 °F 15.7 °F 24.6 °F 87% 30.29 in 10.0 mi West 17.3 mph - N/A   Overcast
8:44 PM 28.4 °F 16.2 °F 24.8 °F 86% 30.31 in 10.0 mi West 17.3 mph - N/A   Overcast
8:55 PM 28.4 °F 17.0 °F 24.8 °F 86% 30.32 in 10.0 mi West 15.0 mph - N/A   Overcast
9:55 PM 28.2 °F 17.7 °F 24.6 °F 86% 30.34 in 10.0 mi West 12.7 mph - N/A   Overcast
9:56 PM 28.4 °F 18.5 °F 24.8 °F 86% 30.34 in 10.0 mi West 11.5 mph - N/A   Overcast
10:55 PM 28.0 °F 20.0 °F 24.4 °F 86% 30.36 in 10.0 mi West 8.1 mph - N/A   Overcast
11:55 PM 26.4 °F 17.3 °F 23.4 °F 88% 30.36 in 10.0 mi West 9.2 mph - N/A   Overcast